Location: Brudzew
(52.0976°N, 18.6049°E)
Time: 22:57:41
(UTC+02:00)

ISS - Pass Details

Date: 30 September 2018
Orbit: 403 x 408 km, 51.6° (Epoch: 17 October)

Event Time Altitude Azimuth Distance (km) Brightness Sun altitude
Rises 19:54:31 0° 264° (W) 2,338 1.5 -14.4°
Reaches altitude 10° 19:56:36 10° 264° (W) 1,477 0.2 -14.7°
Maximum altitude 19:59:55 84° 177° (S) 418 -3.9 -15.2°
Enters shadow 20:01:08 36° 91° (E) 666 -3.3 -15.4°
